(124) Alkeste
ephemeris date magn radius delta ra dec elong phase
Today5 Sep 202612.52.732 AU1.937 AU01h46m+10°34'133.6°15.5°
Opposition14 Oct 202611.62.758 AU1.761 AU01h21m+07°25'178.7°0.5°
(124) Alkeste - 2026-09-05
astro.vanbuitenen.nl


 
-1 year
-1 month
-1 day
Now
+1 day
+1 month
+1 year

The interactive orbit chart above shows the body's path through the solar system and its position at the given date. Green and blue lines are shown perpendicular to the ecliptic plane: Green if the path is above the ecliptic plane, blue if it is below. (Left-click and drag to rotate the view; Right-click and drag to move the view; Use scroll wheel to zoom in our out.)

The orbital elements of Alkeste are:

            e (Eccentricity)                : 0.0784637
            a (Semimajor axis)              : 2.6295157
            i (Inclination)                 : 2.96383
            Ω (Longitude of ascending node) : 187.89719
            ω (Argument of perihelion)      : 61.49319
            M (Mean anomaly)                : 95.49905
            Epoch                           : 2026 Jun 09

            L (Longitude of perihelion)     : 249.35820
            B (Latitude of perihelion)      : 2.60423
            P (Orbital period in years)     : 4.26            
        

The light curve chart below shows the estimated development of the minor planet's magnitude.


The all-sky chart below shows the path of the minor planet over the same period as the light curve. The current position is marked yellow.





The following chart shows the path of the minor planet in the next few days. The field of view is optimized for (~10x50) binoculars and finderscopes.




Ephemerides:
Date       Time       RA (2000)    DEC (2000)    delta   radius  elong  phase   PA    magn
2026-09-05 00:00 UT   01 46 15.9   +10 34 41     1.937    2.732  133.6   15.5   250   12.5 
2026-09-05 09:49 UT   01 46 09.9   +10 33 40     1.933    2.732  134.1   15.4   250   12.5 
2026-09-06 00:00 UT   01 46 00.9   +10 32 10     1.928    2.733  134.7   15.2   250   12.5 
2026-09-07 00:00 UT   01 45 44.4   +10 29 30     1.919    2.733  135.7   14.9   250   12.5 
2026-09-08 00:00 UT   01 45 26.4   +10 26 41     1.911    2.734  136.8   14.6   250   12.5 
2026-09-09 00:00 UT   01 45 07.0   +10 23 44     1.903    2.735  137.9   14.3   250   12.4 
2026-09-10 00:00 UT   01 44 46.1   +10 20 38     1.895    2.735  138.9   14.0   250   12.4 
2026-09-11 00:00 UT   01 44 23.7   +10 17 23     1.887    2.736  140.0   13.7   250   12.4 
2026-09-12 00:00 UT   01 43 60.0   +10 13 59     1.879    2.737  141.1   13.4   250   12.4 
2026-09-13 00:00 UT   01 43 34.8   +10 10 28     1.872    2.737  142.2   13.0   250   12.4 
2026-09-14 00:00 UT   01 43 08.3   +10 06 47     1.865    2.738  143.3   12.7   250   12.3 
2026-09-15 00:00 UT   01 42 40.3   +10 02 59     1.858    2.739  144.4   12.4   250   12.3 
2026-09-16 00:00 UT   01 42 11.1   +09 59 03     1.851    2.739  145.5   12.0   250   12.3 
2026-09-17 00:00 UT   01 41 40.5   +09 54 58     1.844    2.740  146.6   11.7   250   12.3 
2026-09-18 00:00 UT   01 41 08.6   +09 50 46     1.838    2.741  147.7   11.3   250   12.3 
2026-09-19 00:00 UT   01 40 35.5   +09 46 26     1.832    2.741  148.9   10.9   250   12.2 
2026-09-20 00:00 UT   01 40 01.2   +09 41 59     1.826    2.742  150.0   10.6   250   12.2 
2026-09-21 00:00 UT   01 39 25.6   +09 37 25     1.820    2.743  151.1   10.2   250   12.2 
2026-09-22 00:00 UT   01 38 48.9   +09 32 43     1.815    2.743  152.3    9.8   250   12.2 
2026-09-23 00:00 UT   01 38 11.0   +09 27 54     1.810    2.744  153.4    9.4   250   12.2 
2026-09-24 00:00 UT   01 37 32.1   +09 22 59     1.805    2.745  154.6    9.0   250   12.1 
2026-09-25 00:00 UT   01 36 52.1   +09 17 58     1.800    2.745  155.7    8.6   250   12.1 
2026-09-26 00:00 UT   01 36 11.1   +09 12 50     1.795    2.746  156.9    8.2   250   12.1 
2026-09-27 00:00 UT   01 35 29.1   +09 07 36     1.791    2.747  158.1    7.8   251   12.1 
2026-09-28 00:00 UT   01 34 46.2   +09 02 16     1.787    2.747  159.3    7.4   251   12.0 
2026-09-29 00:00 UT   01 34 02.3   +08 56 51     1.783    2.748  160.4    7.0   251   12.0 
2026-09-30 00:00 UT   01 33 17.7   +08 51 21     1.780    2.749  161.6    6.6   251   12.0 
2026-10-01 00:00 UT   01 32 32.2   +08 45 46     1.777    2.749  162.8    6.2   251   12.0 
2026-10-02 00:00 UT   01 31 45.9   +08 40 06     1.774    2.750  164.0    5.8   252   12.0 
2026-10-03 00:00 UT   01 30 59.0   +08 34 21     1.771    2.751  165.2    5.3   252   11.9 
2026-10-04 00:00 UT   01 30 11.4   +08 28 33     1.769    2.751  166.4    4.9   252   11.9 
2026-10-05 00:00 UT   01 29 23.2   +08 22 41     1.767    2.752  167.6    4.5   253   11.9 


    Terminology:
            
    delta:  distance between minor planet and earth in AU
    radius: distance between minor planet and sun in AU
    magn:   magnitude (brightness) estimate    
    ra:     right ascension in hours (24h = 360deg)
    dec:    declination in degrees
    elong:  elongation in degrees (angle sun-earth-minor planet)    
    phase:  phase angle in degrees (angle sun-minor planet-earth)        
    AU:     Astronomical Unit (mean distance between earth and sun: 149597870.7 km
    

Orbital elements provided by the MPC (Minor Planet Center).
Calculations by a modified version of AAPlus, a C# implementation of the AA+ project by PJ Naughter from the algorithms presented in the book "Astronomical Algorithms" by Jean Meeus.
NGC2000 dso catalog and star labels from VizieR as provided by the Strasbourg astronomical Data Center.
Tycho2 catalog from the ESO archive.